| time (UTC) | temp C | wind direction | speed KPH | gust KPH | rain 1hr cm | rain 24hr cm | rain mn cm | humidity % | barometer mb |
| 20260507065711 | 13 | 247 | 0.0 | 0.0 | 0.00 | 0.25 | 0.00 | 88 | 1005.4 |
| 20260507064711 | 13 | 247 | 0.0 | 0.0 | 0.00 | 0.25 | 0.00 | 88 | 1005.4 |
| 20260507061711 | 13 | 247 | 0.0 | 0.0 | 0.00 | 0.25 | 0.00 | 88 | 1005.7 |
| 20260507060711 | 13 | 247 | 0.0 | 0.0 | 0.00 | 0.25 | 0.00 | 88 | 1005.8 |
| 20260507055710 | 13 | 247 | 0.0 | 0.0 | 0.00 | 0.25 | 0.00 | 88 | 1006.0 |
| 20260507053710 | 13 | 247 | 0.0 | 3.2 | 0.00 | 0.25 | 0.00 | 88 | 1005.8 |
| 20260507052710 | 13 | 268 | 0.0 | 4.8 | 0.00 | 0.25 | 0.00 | 88 | 1005.9 |
| 20260507050710 | 13 | 177 | 1.6 | 4.8 | 0.00 | 0.25 | 0.00 | 88 | 1006.3 |
| 20260507042710 | 13 | 234 | 0.0 | 3.2 | 0.00 | 0.25 | 0.00 | 88 | 1006.1 |
| 20260507040711 | 13 | 247 | 0.0 | 8.0 | 0.00 | 0.25 | 0.00 | 88 | 1006.0 |
| 20260507032710 | 13 | 273 | 1.6 | 11.3 | 0.00 | 0.25 | 0.25 | 88 | 1006.3 |
| 20260507030710 | 13 | 268 | 0.0 | 4.8 | 0.00 | 0.25 | 0.25 | 88 | 1006.0 |
| 20260507025711 | 13 | 271 | 1.6 | 8.0 | 0.00 | 0.25 | 0.25 | 88 | 1005.8 |
| 20260507024710 | 13 | 215 | 3.2 | 9.7 | 0.13 | 0.25 | 0.25 | 88 | 1005.8 |
| 20260507022710 | 13 | 227 | 4.8 | 12.9 | 0.13 | 0.25 | 0.25 | 88 | 1005.9 |
| 20260507020711 | 13 | 251 | 3.2 | 8.0 | 0.13 | 0.25 | 0.25 | 88 | 1006.4 |
| 20260507014710 | 13 | 220 | 6.4 | 11.3 | 0.00 | 0.13 | 0.13 | 88 | 1006.5 |
| 20260507013711 | 13 | 221 | 4.8 | 12.9 | 0.00 | 0.13 | 0.13 | 88 | 1006.7 |
| 20260507011711 | 13 | 210 | 4.8 | 19.3 | 0.00 | 0.13 | 0.13 | 88 | 1006.7 |
| 20260507003712 | 14 | 224 | 4.8 | 16.1 | 0.00 | 0.13 | 0.13 | 88 | 1006.8 |
| 20260507000710 | 14 | 228 | 3.2 | 11.3 | 0.00 | 0.13 | 0.13 | 88 | 1006.8 |
| 20260506234710 | 14 | 242 | 4.8 | 19.3 | 0.13 | 0.13 | 0.13 | 88 | 1006.8 |
| 20260506233710 | 14 | 208 | 6.4 | 12.9 | 0.13 | 0.13 | 0.13 | 88 | 1006.8 |
| 20260506232710 | 14 | 208 | 4.8 | 12.9 | 0.13 | 0.13 | 0.13 | 88 | 1006.8 |
| 20260506231711 | 14 | 240 | 4.8 | 11.3 | 0.13 | 0.13 | 0.13 | 88 | 1006.8 |
| 20260506230710 | 14 | 212 | 4.8 | 20.9 | 0.13 | 0.13 | 0.13 | 87 | 1006.8 |
| 20260506225711 | 15 | 209 | 6.4 | 11.3 | 0.00 | 0.00 | 0.00 | 87 | 1006.9 |
| 20260506222713 | 15 | 219 | 8.0 | 14.5 | 0.00 | 0.00 | 0.00 | 86 | 1007.2 |
| 20260506213710 | 16 | 236 | 6.4 | 14.5 | 0.00 | 0.00 | 0.00 | 83 | 1007.3 |
| 20260506210711 | 17 | 220 | 9.7 | 19.3 | 0.00 | 0.00 | 0.00 | 81 | 1007.5 |
| 20260506205711 | 17 | 234 | 8.0 | 22.5 | 0.00 | 0.00 | 0.00 | 81 | 1007.5 |
| 20260506203711 | 16 | 249 | 8.0 | 19.3 | 0.00 | 0.00 | 0.00 | 80 | 1007.7 |
| 20260506202710 | 17 | 215 | 8.0 | 20.9 | 0.00 | 0.00 | 0.00 | 79 | 1007.8 |
| 20260506201711 | 17 | 228 | 4.8 | 12.9 | 0.00 | 0.00 | 0.00 | 77 | 1007.9 |
| 20260506195711 | 18 | 264 | 9.7 | 19.3 | 0.00 | 0.00 | 0.00 | 73 | 1008.1 |
| 20260506194710 | 18 | 225 | 6.4 | 12.9 | 0.00 | 0.00 | 0.00 | 73 | 1008.2 |
| 20260506191712 | 18 | 231 | 9.7 | 24.1 | 0.00 | 0.00 | 0.00 | 72 | 1008.2 |
| 20260506185711 | 18 | 223 | 8.0 | 19.3 | 0.00 | 0.00 | 0.00 | 70 | 1008.3 |
| 20260506183711 | 19 | 207 | 9.7 | 22.5 | 0.00 | 0.00 | 0.00 | 69 | 1008.4 |
| 20260506182710 | 19 | 225 | 12.9 | 25.7 | 0.00 | 0.00 | 0.00 | 68 | 1008.5 |
| 20260506180751 | 20 | 202 | 14.5 | 27.4 | 0.00 | 0.00 | 0.00 | 65 | 1008.8 |
| 20260506174710 | 21 | 225 | 8.0 | 22.5 | 0.00 | 0.00 | 0.00 | 64 | 1009.2 |
| 20260506173710 | 21 | 212 | 11.3 | 22.5 | 0.00 | 0.00 | 0.00 | 64 | 1009.2 |
| 20260506172711 | 21 | 208 | 11.3 | 27.4 | 0.00 | 0.00 | 0.00 | 63 | 1009.1 |
| 20260506171710 | 21 | 232 | 9.7 | 25.7 | 0.00 | 0.00 | 0.00 | 65 | 1009.2 |
| 20260506170710 | 20 | 252 | 11.3 | 29.0 | 0.00 | 0.00 | 0.00 | 66 | 1009.4 |
| 20260506165710 | 20 | 224 | 9.7 | 27.4 | 0.00 | 0.00 | 0.00 | 66 | 1009.4 |
| 20260506164710 | 20 | 196 | 14.5 | 25.7 | 0.00 | 0.00 | 0.00 | 65 | 1009.5 |
| 20260506155710 | 21 | 192 | 9.7 | 24.1 | 0.00 | 0.00 | 0.00 | 62 | 1010.0 |
| 20260506153710 | 21 | 260 | 9.7 | 20.9 | 0.00 | 0.00 | 0.00 | 65 | 1010.6 |
| 20260506150710 | 21 | 198 | 11.3 | 22.5 | 0.00 | 0.00 | 0.00 | 64 | 1010.5 |
| 20260506135712 | 20 | 220 | 11.3 | 25.7 | 0.00 | 0.00 | 0.00 | 67 | 1010.8 |
| 20260506134714 | 20 | 216 | 9.7 | 20.9 | 0.00 | 0.00 | 0.00 | 69 | 1010.9 |
| 20260506133710 | 20 | 225 | 9.7 | 22.5 | 0.00 | 0.00 | 0.00 | 70 | 1011.1 |
| 20260506131710 | 18 | 245 | 4.8 | 16.1 | 0.00 | 0.00 | 0.00 | 74 | 1010.9 |
| 20260506125710 | 18 | 258 | 6.4 | 16.1 | 0.00 | 0.00 | 0.00 | 78 | 1010.9 |
| 20260506122710 | 16 | 194 | 8.0 | 20.9 | 0.00 | 0.00 | 0.00 | 82 | 1011.2 |
| 20260506120710 | 16 | 210 | 8.0 | 12.9 | 0.00 | 0.00 | 0.00 | 83 | 1011.4 |
| 20260506112711 | 15 | 201 | 8.0 | 19.3 | 0.00 | 0.00 | 0.00 | 85 | 1011.6 |
| 20260506105711 | 15 | 217 | 6.4 | 14.5 | 0.00 | 0.00 | 0.00 | 85 | 1011.7 |
| 20260506103709 | 15 | 216 | 8.0 | 14.5 | 0.00 | 0.00 | 0.00 | 85 | 1011.6 |
| 20260506100710 | 14 | 215 | 8.0 | 20.9 | 0.00 | 0.00 | 0.00 | 86 | 1011.3 |
| 20260506094710 | 14 | 233 | 6.4 | 19.3 | 0.00 | 0.00 | 0.00 | 86 | 1011.3 |
| 20260506092710 | 14 | 212 | 6.4 | 12.9 | 0.00 | 0.00 | 0.00 | 85 | 1011.3 |
| 20260506091710 | 14 | 194 | 4.8 | 12.9 | 0.00 | 0.00 | 0.00 | 85 | 1011.4 |
| 20260506084710 | 14 | 229 | 9.7 | 20.9 | 0.00 | 0.00 | 0.00 | 85 | 1011.4 |
| 20260506081710 | 15 | 246 | 8.0 | 20.9 | 0.00 | 0.00 | 0.00 | 84 | 1011.4 |
| 20260506071713 | 15 | 225 | 4.8 | 14.5 | 0.00 | 0.00 | 0.00 | 83 | 1011.4 |